RH
74 82 85 85 84 80 75 74 74 75 76 73 71 69 71 74 44 51 59 55 67 63 70 74 71 67 68 65 65 63 65 65 65
81 86 87 87 85 81 76 75 75 76 75 74 73 71 74 42 43 51 53 57 62 65 65 65 66 71 67 62 64 64 65 66 65
86 87 88 86 83 82 78 76 75 76 76 76 75 75 74 44 45 52 54 69 62 62 63 63 65 70 69 66 66 65 66 65 67
87 88 87 84 83 85 83 78 77 76 76 78 78 79 78 44 45 46 50 70 60 65 64 62 65 65 67 67 67 67 68 68 67
90 92 88 86 86 88 86 83 78 78 79 80 83 82 80 42 44 46 53 63 60 62 64 65 64 65 67 67 67 69 69 69 69
80 78 91 89 87 87 87 85 84 87 88 87 86 85 43 40 42 48 74 66 63 63 66 65 66 67 67 66 67 68 69 69 70
64 77 93 90 89 88 88 87 89 84 56 66 81 55 38 40 44 52 75 66 64 66 67 68 67 67 67 66 66 65 67 68 69
76 90 76 73 86 62 74 78 62 55 43 46 44 38 36 39 44 66 78 69 66 68 69 69 68 67 67 66 66 65 64 64 67
77 85 74 70 62 51 56 54 49 44 38 37 35 35 37 39 43 67 83 77 68 69 69 70 69 68 67 66 66 65 65 64 64
77 73 64 62 56 46 48 45 43 44 38 36 35 36 37 39 43 53 87 84 77 71 70 69 69 69 69 68 68 68 68 68 68
72 65 64 62 53 45 43 43 41 44 39 38 38 38 38 38 41 44 66 87 85 78 72 70 71 71 71 71 71 71 72 71 71
68 68 68 59 52 45 43 42 38 42 41 40 39 40 38 40 40 44 45 70 91 88 80 74 74 74 74 74 75 76 77 76 75
72 70 71 58 55 50 44 41 41 43 44 44 43 42 42 40 40 44 45 51 52 85 88 86 83 82 80 77 73 73 76 82 84
76 71 68 59 61 56 48 44 41 46 46 47 44 45 46 46 41 44 48 52 57 55 85 89 89 88 82 78 75 73 74 77 76
77 76 66 65 63 61 55 50 44 43 44 41 42 46 48 49 52 50 48 50 56 58 61 74 75 90 85 80 76 75 74 77 75
76 77 71 68 64 63 55 52 47 47 43 48 52 51 50 52 53 54 50 52 53 54 56 58 61 71 86 84 80 78 76 78 78
78 78 81 70 68 62 58 53 50 46 46 52 56 64 57 55 53 54 53 52 51 55 58 57 60 64 68 78 90 87 81 78 77
80 76 82 81 69 72 64 59 56 53 49 50 56 63 63 60 56 57 54 53 54 56 60 60 62 64 65 86 88 91 89 84 78
83 85 84 86 83 76 71 62 57 55 58 58 50 56 53 58 64 59 58 54 55 58 65 66 68 70 73 80 85 92 90 85 82
80 88 92 91 89 83 76 71 65 57 59 62 66 59 62 65 68 71 75 65 62 65 67 73 71 73 80 84 85 91 89 85 82
Wind_Speed
7 10 11 14 14 14 14 14 14 12 11 12 11 6 4 5 9 10 4 10 11 12 13 14 13 12 13 13 13 13 14 14 15
9 11 12 14 13 14 13 13 12 12 11 11 8 3 5 3 9 10 8 9 10 12 11 11 10 10 13 11 12 12 13 13 14
12 12 12 13 13 13 13 12 12 11 11 9 6 3 8 8 9 8 7 8 10 9 9 9 10 10 11 10 10 10 11 12 12
12 12 11 11 10 10 12 11 11 10 10 9 5 4 7 1 6 8 6 7 8 9 9 9 8 8 8 8 9 9 10 10 11
11 10 9 10 9 8 11 11 10 9 9 8 5 5 8 7 5 6 7 8 7 9 7 7 7 7 7 6 7 7 8 9 10
13 10 13 10 9 7 9 9 10 9 6 5 5 8 4 5 3 5 4 7 7 6 6 5 5 5 4 4 4 5 6 6 8
10 10 12 11 10 8 8 10 10 10 7 5 5 6 4 4 3 6 5 6 6 6 5 4 4 3 2 2 3 3 4 4 5
7 5 8 8 8 7 8 8 7 10 7 7 7 7 4 3 2 8 5 6 6 5 5 4 4 3 2 1 0 1 2 2 3
7 6 8 8 8 10 9 7 9 9 7 9 9 6 4 3 3 7 4 4 6 6 5 5 4 4 4 3 3 3 4 3 4
8 8 7 7 9 9 9 9 9 8 9 8 7 7 6 5 3 6 7 3 5 6 6 6 5 6 6 6 6 6 7 6 6
8 8 8 9 9 8 8 8 7 7 8 8 8 8 6 6 5 3 8 7 5 7 8 8 8 8 9 9 9 9 10 10 9
10 8 8 8 8 10 9 9 8 7 7 8 8 7 8 7 7 6 5 9 8 8 10 10 11 11 11 12 12 12 12 13 12
10 9 9 9 8 8 8 8 8 7 7 7 6 6 6 8 8 7 6 4 7 10 11 10 10 8 8 8 8 8 8 10 14
12 10 9 11 8 8 8 8 9 7 7 7 6 6 6 7 7 8 7 6 5 4 13 13 9 8 10 11 10 10 10 8 8
12 10 12 11 8 9 9 10 8 8 7 9 8 6 6 6 7 7 7 7 7 7 6 7 7 12 11 11 12 11 10 7 4
14 10 12 11 10 11 11 10 10 8 8 7 6 6 8 8 6 7 7 8 8 8 7 5 4 5 11 10 12 12 10 9 7
14 14 12 14 10 13 12 13 9 8 9 8 6 6 7 8 8 8 8 9 7 8 8 8 7 5 4 7 11 9 10 11 10
14 16 12 13 13 12 13 13 15 10 10 12 6 5 5 6 8 11 8 8 7 6 7 8 7 7 6 5 7 9 9 11 13
14 15 15 14 11 13 12 12 12 10 11 10 11 8 2 4 4 7 8 8 9 8 6 5 7 7 6 6 4 11 11 12 14
15 15 13 12 11 15 14 12 13 10 9 9 9 11 6 5 3 4 4 5 6 6 5 5 7 6 5 4 6 10 11 14 15
Wind_Direction
163 125 122 121 117 118 122 123 125 125 125 122 126 156 213 279 94 94 73 82 92 89 78 85 82 83 83 78 75 64 70 58 62
140 128 129 127 126 127 127 129 132 132 130 128 135 184 295 145 125 84 107 97 104 95 88 83 88 75 85 78 74 70 64 63 58
141 137 133 132 137 137 134 135 137 137 135 133 138 229 273 112 95 117 112 118 102 104 97 89 91 83 81 75 72 66 61 60 55
150 147 143 138 140 146 137 140 141 143 140 138 148 280 303 127 105 117 118 114 118 102 97 95 100 77 78 79 70 63 57 53 50
153 146 147 139 134 143 141 143 144 142 142 142 155 243 279 117 137 118 104 133 119 110 113 110 96 87 80 70 67 58 53 50 49
160 183 142 143 137 135 138 139 133 123 123 140 191 230 218 142 132 103 114 142 138 119 122 120 106 99 92 85 71 58 53 48 47
184 161 146 149 143 141 154 137 138 173 161 172 223 236 189 136 157 109 156 149 146 142 138 133 133 128 112 77 60 43 45 33 42
174 145 158 167 171 175 170 157 190 214 177 163 201 235 185 163 155 122 160 170 162 164 167 166 171 175 190 224 297 344 342 358 357
180 171 186 183 177 192 194 186 201 209 203 178 210 208 185 199 169 135 178 192 179 182 194 194 203 215 235 244 261 268 276 287 296
188 196 176 182 193 200 191 201 200 200 203 202 203 201 200 204 187 143 165 222 207 203 211 218 223 233 245 252 258 265 269 273 277
192 193 182 193 217 198 199 206 207 200 208 204 200 199 206 205 205 179 165 192 233 230 226 226 232 239 247 254 256 259 268 267 267
197 185 200 201 211 203 204 206 209 203 209 213 209 209 205 205 202 210 191 180 200 233 248 244 239 242 249 254 258 261 258 264 264
200 197 191 209 205 198 201 204 205 209 200 210 210 212 216 209 211 208 215 206 193 201 220 245 267 273 280 277 278 278 278 274 262
201 202 199 204 199 203 197 204 202 208 206 208 210 205 215 221 226 218 214 219 219 223 185 206 230 258 266 268 269 273 283 280 281
203 204 207 205 192 201 200 204 205 209 209 212 211 213 218 228 222 223 228 221 213 226 235 187 213 221 237 255 260 263 268 254 258
207 202 206 206 202 196 203 204 205 209 206 210 207 226 217 222 227 221 234 217 222 227 226 228 231 190 209 236 247 247 253 242 249
208 202 199 203 199 202 202 199 198 204 205 208 199 211 221 220 219 225 229 234 222 218 231 232 229 236 210 207 217 236 247 248 241
214 206 196 206 200 208 203 199 198 194 198 210 195 198 222 191 203 214 223 226 230 229 225 226 229 228 228 157 191 221 236 244 248
211 215 207 197 203 210 209 202 202 197 198 196 219 246 305 215 177 196 214 225 225 228 223 223 225 216 226 235 191 192 211 236 244
210 205 207 201 201 207 208 204 200 209 200 199 203 223 223 262 269 186 194 230 226 231 219 202 228 214 232 225 201 185 213 230 239